Skip Page Navigation
NASA JPL Caltech
NASA Logo - Jet Propulsion Laboratory + View the NASA Portal
+ Center for Near-Earth Object Studies
JPL Home Earth Solar System Stars & Galaxies Technology
JPL Solar System Dynamics
BODIES ORBITS EPHEMERIDES TOOLS PHYSICAL DATA DISCOVERY FAQ SITE MAP
IMPORTANT: The SSD Announcement email list is now available. Major changes are coming in the near future, including possible hostname and/or URL changes. To be notified of such changes, subscribe to this email list.

Please visit this page for more details.


JPL Small-Body Database Browser
Search: [ help ]  
359510 (2010 RX43)
Classification: Outer Main-belt Asteroid          SPK-ID: 2359510
Ephemeris | Orbit Diagram | Orbital Elements | Mission Design | Physical Parameters | Discovery Circumstances | Close-Approach Data ]

[ show orbit diagram ]
Orbital Elements at Epoch 2459000.5 (2020-May-31.0) TDB
Reference: JPL 14 (heliocentric ecliptic J2000)
 Element Value Uncertainty (1-sigma)   Units 
e .1215508693634774 7.5433e-08  
a 3.438641167480498 6.5471e-08 au
q 3.0206713441442 2.4518e-07 au
i 10.74714562862937 7.0907e-06 deg
node 168.3625027115784 4.4248e-05 deg
peri 275.1449806198744 5.8061e-05 deg
M 124.9521385099439 3.2894e-05 deg
tp 2458192.111909290343
(2018-Mar-14.61190929)
0.000222 TDB
period 2329.049475470297
6.38
6.6516e-05
1.821e-07
d
yr
n .1545694944618153 4.4144e-09 deg/d
Q 3.856610990816795 7.3429e-08 au
  Orbit Determination Parameters
   # obs. used (total)      175  
   data-arc span      8250 days (22.59 yr)  
   first obs. used      1997-09-23  
   last obs. used      2020-04-25  
   planetary ephem.      DE431  
   SB-pert. ephem.      SB431-N16  
   condition code      0  
   norm. resid. RMS      .5736  
   source      ORB  
   producer      Otto Matic  
   solution date      2020-May-21 23:23:49  

Additional Information
 Earth MOID = 2.06199 au 
 Jupiter MOID = 1.48103 au 
 T_jup = 3.099 
[ show covariance matrix ]

Ephemeris | Orbit Diagram | Orbital Elements | Mission Design | Physical Parameters | Discovery Circumstances | Close-Approach Data ]

Physical Parameter Table
Parameter Symbol Value Units Sigma Reference Notes
absolute magnitude H 15.5   n/a MPO471701  

359510 (2010 RX43)          Discovered 1997-Sep-23 by Spacewatch at Kitt Peak
Reference: 20130327/Numbers.arcLast Updated: 2013-03-29

[ show close-approach data ]
Alternate Designations
 2010 RX43 = 1997 SY6 
Ephemeris | Orbit Diagram | Orbital Elements | Mission Design | Physical Parameters | Discovery Circumstances | Close-Approach Data ]
ABOUT SSD CREDITS/AWARDS PRIVACY/COPYRIGHT GLOSSARY LINKS
FirstGov 2020-Jun-05 23:34 UT
(server date/time)  
NASA Home Page
Site Manager:   Ryan S. Park
Webmaster  Alan B. Chamberlin